sat.trackr.live / text

‹ back to catalog

HJ-2F

NORAD 57519 · 2023-116A

PAYLOAD ACTIVE UNKNOWN

§ Identity

Operator
Country
PRC
Launch date
2023-08-08
Launch site
TAISC
Launch vehicle
Mass (kg)
RCS (m²)

External: N2YO · Heavens-Above · Gunter

§ Orbital elements

Epoch: 2026-09-21T22:47:11.710176Z

Period
94.73 min
Inclination
97.3894°
Eccentricity
0.0007621
Mean motion
15.20101050 rev/d
Perigee alt
500.3 km
Apogee alt
510.8 km
Semi-major
6,883.7 km
B*
1.9701e-4
RAAN
268.4852°
Arg perigee
175.1659°
Mean anomaly
184.9651°
Rev number
17,347

§ Raw data

HJ-2F1 57519U 23116A   26264.94944109  .00004190  00000+0  19701-3 0  99942 57519  97.3894 268.4852 0007621 175.1659 184.9651 15.20101050173475

JSON: /api/v1/satellites/57519 · /tle

For live sub-satellite position, see the globe view (requires WebGL).

§ Visibility from observer

Set your observer location to see the next 7 days of passes ≥ 10°. The values pass through the URL so the page stays shareable.

No JS? Fill the form by hand. The geolocation button needs JavaScript.

§ Radio — SatNOGS DB

ModeDescriptionDownlinkUplink
BPSK S-band telemetry 2.208 GHz

1 transmitter · refreshed weekly from db.satnogs.org